Find NOAA 9

NORAD ID: 15427 Int'l Des: 1984-123 Owner: NOAA Country: US operational
LEOCIRCULARRETROGRADESSO

Live-Position

3D-Globus wird geladen...

Über NOAA 9

Beschreibung wird geladen...

Nächste Überflüge

Passes for default location (London). Set your location on the main map for personalized predictions.

Höhenverlauf

Loading altitude history...

Zweizeiliger Elementsatz

1 15427U 84123A 26106.06109569 .00000045 00000-0 45732-4 0 9992
2 15427 99.1048 131.2444 0015002 162.2231 221.4981 14.17051169134624
Epoch: 16. Apr. 2026 • Age: 11 hours

Aktueller Status

Höhe 847.9 km
Geschwindigkeit 7.43 km/s
Subsatellitenpunkt -44.83°S, 90.8°W
Startdatum 12. Dez. 1984
Alter 41.3 years
Typ weather

Technische Details

Klassifizierung Payload
Masse 1030.00 kg
Trockenmasse 1030.00 kg
Gesamtmasse 1712.00 kg
Länge 4.20 m
Durchmesser 1.90 m
Spannweite 8.00 m
Form Box + Pan
Hersteller RCA
Bus-Typ ATN
Phasenstatus In Orbit
Besitzer/Staat NOAA/US

Most Searched